Date,TemperatureHighF,TemperatureAvgF,TemperatureLowF,DewpointHighF,DewpointAvgF,DewpointLowF,HumidityHigh,HumidityAvg,HumidityLow,PressureMaxIn,PressureMinIn,WindSpeedMaxMPH,WindSpeedAvgMPH,GustSpeedMaxMPH,PrecipitationSumIn
2013-1-1,23.5,15.1,-0.2,6.7,2.9,-9.3,75,59,40,30.14,29.93,9,5,11,0.00
2013-1-2,34.7,22.8,10.0,28.6,16.3,2.0,84,75,66,30.04,29.86,10,6,13,0.00
2013-1-3,29.1,20.1,14.0,24.9,11.2,7.0,84,68,47,30.24,30.03,12,6,15,0.00
2013-1-4,34.3,23.2,12.4,17.1,12.3,6.6,78,64,49,30.14,29.96,9,6,11,0.00
2013-1-5,21.6,20.9,14.7,17.5,16.6,8.7,85,83,77,29.89,29.87,9,8,13,0.00
2013-1-6,35.8,26.8,11.3,19.5,14.9,5.4,77,62,46,30.15,29.96,12,5,12,0.00
2013-1-7,41.2,33.8,24.6,29.0,24.1,18.6,84,68,59,29.96,29.80,15,6,18,0.00
2013-1-8,41.4,32.1,20.1,30.3,25.2,16.7,90,76,64,29.93,29.67,15,7,21,0.00
2013-1-9,53.2,37.5,21.9,31.0,26.5,16.6,84,67,42,30.27,29.92,9,4,11,0.00
2013-1-10,37.6,35.3,31.3,36.1,33.0,24.5,98,92,69,30.16,29.55,8,5,10,0.14
2013-1-11,44.1,36.1,28.6,41.9,34.6,24.1,99,94,84,29.55,29.26,29,10,33,0.15
2013-1-12,28.6,17.5,10.0,24.1,3.2,-2.9,83,53,45,29.98,29.53,22,12,25,0.15
2013-1-13,22.8,16.3,6.4,2.3,-0.6,-4.7,64,48,35,30.14,29.96,14,8,19,0.15
2013-1-14,31.6,20.8,5.7,10.7,5.2,-3.3,70,52,37,30.28,30.13,10,4,12,0.15
2013-1-15,37.6,25.8,10.0,19.6,12.3,1.7,75,58,41,30.18,29.90,15,6,17,0.15
2013-1-16,53.6,39.5,23.0,33.8,28.1,14.7,87,65,42,30.09,29.75,15,8,18,0.15
2013-1-17,32.2,26.7,20.8,29.9,23.8,17.4,96,89,82,30.29,30.07,12,3,14,0.00
2013-1-18,50.9,41.9,27.3,33.1,30.0,-23.7,92,64,49,30.14,29.72,20,11,100,0.00
2013-1-19,54.0,39.9,19.4,31.8,25.3,8.6,76,58,41,30.18,29.71,22,12,27,0.00
2013-1-20,20.3,15.8,12.0,9.6,2.9,-1.2,67,57,43,30.25,30.15,10,6,11,0.00
2013-1-21,18.9,9.1,2.8,-6.6,-11.6,-16.7,49,39,24,30.28,30.17,11,6,15,0.00
2013-1-22,24.4,13.6,8.8,6.8,0.1,-8.7,67,55,43,30.21,30.08,7,3,9,0.00
2013-1-23,13.6,13.6,13.6,2.0,2.0,2.0,59,59,59,30.09,30.09,2,2,3,0.00
2013-1-24,13.6,13.6,13.6,2.0,2.0,2.0,59,59,59,30.09,30.09,2,2,3,0.00
2013-1-25,13.6,13.6,13.6,2.0,2.0,2.0,59,59,59,30.09,30.09,2,2,3,0.00
2013-1-26,13.6,13.6,13.6,2.0,2.0,2.0,59,59,59,30.09,30.09,2,2,3,0.00
2013-1-27,13.6,13.6,13.6,2.0,2.0,2.0,59,59,59,30.09,30.09,2,2,3,0.00
2013-5-16,50.0,50.0,50.0,31.6,31.6,31.6,49,49,49,29.67,29.60,7,7,7,0.00
2013-5-17,50.0,50.0,50.0,31.6,31.6,31.6,49,49,49,29.73,29.66,7,7,7,0.00
2013-5-18,50.0,50.0,50.0,31.6,31.6,31.6,49,49,49,29.75,29.54,7,7,7,0.00
2013-5-19,50.0,50.0,50.0,31.6,31.6,31.6,49,49,49,29.58,29.37,7,7,7,0.00
2013-5-20,50.0,50.0,50.0,31.6,31.6,31.6,49,49,49,29.47,29.40,7,7,7,0.00
2013-5-21,50.0,50.0,50.0,31.6,31.6,31.6,49,49,49,29.57,29.43,7,7,7,0.00
2013-5-22,50.0,50.0,50.0,31.6,31.6,31.6,49,49,49,29.79,29.57,7,7,7,0.00
2013-5-23,50.0,50.0,50.0,31.6,31.6,31.6,49,49,49,30.06,29.79,7,7,7,0.00
2013-5-24,50.0,50.0,50.0,31.6,31.6,31.6,49,49,49,30.13,30.06,7,7,7,0.00
2013-7-31,0.0,0.0,0.0,0.0,0.0,0.0,0,0,100,29.98,29.88,0,0,0,0.00
2013-8-1,0.0,0.0,0.0,0.0,0.0,0.0,0,0,100,29.95,29.72,0,0,0,0.00
2013-8-2,0.0,0.0,0.0,0.0,0.0,0.0,0,0,100,29.87,29.74,0,0,0,0.00
2013-8-3,0.0,0.0,0.0,0.0,0.0,0.0,0,0,100,30.02,29.95,0,0,0,0.00
2013-8-10,88.3,80.6,67.5,66.5,64.2,54.9,89,60,45,29.92,29.92,9,3,10,0.05
2013-8-11,89.4,81.4,68.9,72.1,70.0,64.5,94,71,52,29.92,29.92,11,5,15,0.06
2013-8-12,93.9,81.6,66.0,71.8,66.2,61.0,99,65,37,29.92,29.92,4,1,4,0.07
2013-8-13,90.7,77.1,-3.1,65.3,60.2,-24.0,99,60,35,29.92,29.92,97,2,97,0.07
2013-8-14,77.2,77.2,77.2,62.7,62.7,62.7,62,62,62,29.92,29.92,0,0,0,0.07
2013-8-15,77.2,77.2,77.2,62.7,62.7,62.7,62,62,62,29.92,29.92,0,0,0,0.00
2013-8-24,0.0,0.0,0.0,0.0,0.0,0.0,0,0,100,29.92,29.92,0,0,0,0.07
2013-8-25,0.0,0.0,0.0,0.0,0.0,0.0,0,0,100,29.92,29.92,0,0,0,0.07